Flag for Germany Weather past 2 weeks in Mühlacker, Baden-Württemberg, Germany

Now
36 °F

Clear.


Feels Like: 31 °F
Forecast: 36 / 61 °F
Wind: 6 mph from East

Location: Stuttgart-Echterdingen

Current Time: Apr 19, 2015 at 4:09:35 AM

Latest Report: Apr 19, 2015 at 3:20 AM


Visibility: 10 mi

Pressure: 30.15 "Hg

Humidity: 75%

Dew point: 28 °F

Location of MühlackerLocation

Historic Weather in Mühlacker — Graph

°F

Mühlacker temperature yesterday

Maximum temperature yesterday: 54 °F (at 2:50 PM)
Minimum temperature yesterday: 39 °F (at 6:50 AM)
Average temperature yesterday: 46 °F

Past Weeks' High & Low Weather Summary

 TemperatureHumidityPressure
High77 °F (Apr 15, 3:20 PM)100% (Apr 4, 7:20 AM)30.60 "Hg (Apr 4, 7:20 AM)
Low27 °F (Apr 6, 7:20 AM)15% (Apr 15, 5:50 PM)29.86 "Hg (Apr 17, 7:50 AM)
Average50 °F61%30.23 "Hg
* Reported Apr 4 2:20 AM — Apr 19 2:50 AM, Mühlacker, Weather by CustomWeather, © 2015

Note: Actual official high and low records may vary slightly from our data, if they occured in-between our weather recording intervals... More about our weather records

Advertising

Mühlacker weather history for previous 24 hours

 ConditionsComfort  
Time TempWeatherWind HumidityBarometerVisibility
2:50 AM
Sun, Apr 19
36 °FClear.7 mph75%30.18 "Hg10 mi
2:20 AM37 °FClear.3 mph70%30.18 "Hg10 mi
1:20 AM39 °FClear.6 mph65%30.18 "Hg10 mi
12:50 AM41 °FPassing clouds.3 mph61%30.18 "HgN/A
12:20 AM39 °FClear.3 mph61%30.21 "Hg10 mi
11:50 PM
Sat, Apr 18
41 °FClear.3 mph57%30.18 "Hg10 mi
11:20 PM43 °FClear.5 mph53%30.21 "Hg10 mi
10:50 PM41 °FClear.5 mph57%30.21 "Hg10 mi
10:20 PM43 °FClear.5 mph57%30.21 "Hg10 mi
9:50 PM43 °FClear.7 mph57%30.21 "Hg10 mi
9:20 PM45 °FClear.8 mph53%30.21 "Hg10 mi
8:50 PM45 °FSunny.8 mph49%30.18 "Hg10 mi
8:20 PM46 °FSunny.8 mph46%30.18 "Hg10 mi
7:50 PM50 °FSunny.9 mph43%30.18 "Hg10 mi
7:20 PM52 °FPassing clouds.8 mph38%30.18 "HgN/A
6:50 PM52 °FPassing clouds.10 mph35%30.18 "HgN/A
6:20 PM54 °FPassing clouds.9 mph35%30.18 "HgN/A
5:50 PM54 °FPassing clouds.13 mph35%30.18 "HgN/A
5:20 PM54 °FPassing clouds.12 mph35%30.18 "HgN/A
4:50 PM54 °FPassing clouds.12 mph35%30.18 "HgN/A
4:20 PM54 °FPassing clouds.9 mph35%30.18 "HgN/A
3:50 PM52 °FPassing clouds.9 mph38%30.21 "HgN/A
3:20 PM54 °FPassing clouds.10 mph38%30.21 "HgN/A
2:50 PM54 °FPassing clouds.13 mph35%30.21 "HgN/A
2:20 PM52 °FPassing clouds.12 mph35%30.21 "HgN/A
1:50 PM52 °FPassing clouds.9 mph38%30.21 "HgN/A
1:20 PM50 °FSunny.12 mph37%30.21 "Hg10 mi
12:50 PM50 °FPassing clouds.13 mph37%30.21 "HgN/A
12:20 PM52 °FPassing clouds.10 mph44%30.21 "HgN/A
11:50 AM48 °FScattered clouds.10 mph43%30.21 "HgN/A
11:20 AM50 °FScattered clouds.12 mph47%30.21 "HgN/A
10:50 AM48 °FPassing clouds.14 mph50%30.21 "HgN/A
10:20 AM48 °FPassing clouds.12 mph58%30.21 "HgN/A
9:50 AM46 °FPassing clouds.13 mph57%30.21 "HgN/A
9:20 AM46 °FPassing clouds.5 mph62%30.18 "HgN/A
8:50 AM45 °FPassing clouds.3 mph61%30.18 "HgN/A
8:20 AM43 °FSunny.2 mph66%30.18 "Hg10 mi
7:50 AM41 °FSunny.2 mph70%30.18 "Hg10 mi
7:20 AM39 °FClear.1 mph75%30.18 "Hg10 mi
6:50 AM39 °FClear.2 mph75%30.15 "Hg10 mi
6:20 AM41 °FPassing clouds.3 mph70%30.15 "HgN/A
5:50 AM41 °FClear.5 mph66%30.15 "Hg10 mi
5:20 AM41 °FClear.5 mph70%30.15 "Hg10 mi
4:50 AM41 °FClear.3 mph70%30.15 "Hg10 mi
4:20 AM41 °FClear.6 mph70%30.12 "Hg10 mi
Weather by CustomWeather, © 2015

See weather overviewHow to use our weather pages